カタログに戻る

THORAD DELTA 1 DEB

運用中LEO
NORAD 9989·DEBRIS·🇺🇸 United States

打ち上げ Nov 15, 1974 から Vandenberg Space Force Base

Loading…

次のパス (今後24時間)

TLE

最新Source: Space-Track

元期: Sep 14, 2026, 06:41 UTC

1 09989U 74089EG  26257.27867959  .00000785  00000-0  53639-2 0  9996
2 09989 103.0572 182.9885 0137752 204.9064 309.8782 12.49303716312623

AllMySatでTHORAD DELTA 1 DEBをリアルタイム追跡

Download on the App Store